Вернуться в каталог

CZ-4C DEB

АктивенLEO
NORAD 44617·DEBRIS·🇨🇳 China

Запущен Apr 10, 2018 с Taiyuan Satellite Launch Center

Loading…

Ближайшие Пролёты (ближайшие 24 часа)

TLE

УстаревающийSource: Space-Track

Эпоха: Sep 12, 2026, 16:18 UTC

1 44617U 18034J   26255.67918129 -.00000048  00000-0  61900-4 0  9994
2 44617  63.3959 287.0332 0259743   7.5826 352.9008 13.41014693405976

Отслеживайте CZ-4C DEB в реальном времени с AllMySat

Download on the App Store